FW3327 Weather Reports


time (UTC)temp
F
wind
direction
speed
knots
gust
knots
rain 1hr
in
rain 24hr
in
rain mn
in
humidity
%
barometer
mb
20260507015012 64 88 3.5 6.1 0.00 0.00 0.00 59 1014.3
20260507014516 64 90 1.7 8.7 0.00 0.00 0.00 59 1014.2
20260507014013 64 71 3.5 8.7 0.00 0.00 0.00 57 1014.2
20260507013513 65 95 4.3 8.7 0.00 0.00 0.00 57 1014.2
20260507013019 66 73 3.5 7.0 0.00 0.00 0.00 58 1014.2
20260507012510 66 84 3.5 7.0 0.00 0.00 0.00 57 1014.2
20260507012011 66 44 2.6 5.2 0.00 0.00 0.00 58 1014.3
20260507011517 66 75 1.7 7.0 0.00 0.00 0.00 57 1014.3
20260507011009 66 360 2.6 7.0 0.00 0.00 0.00 58 1014.2
20260507010512 66 24 1.7 5.2 0.00 0.00 0.00 58 1014.2
20260507010010 66 21 2.6 7.0 0.00 0.00 0.00 57 1014.2
20260507005510 67 9 3.5 7.0 0.00 0.00 0.00 58 1014.2
20260507005009 67 5 2.6 5.2 0.00 0.00 0.00 58 1014.1
20260507004522 67 340 1.7 5.2 0.00 0.00 0.00 58 1014.1
20260507004011 67 76 2.6 5.2 0.00 0.00 0.00 59 1014.1
20260507003511 67 24 3.5 6.1 0.00 0.00 0.00 58 1014.1
20260507003008 67 24 2.6 7.0 0.00 0.00 0.00 57 1014.0
20260507002508 67 75 1.7 7.0 0.00 0.00 0.00 58 1014.1
20260507002008 67 35 2.6 7.0 0.00 0.00 0.00 58 1014.0
20260507001507 67 41 2.6 7.0 0.00 0.00 0.00 58 1014.0
20260507001007 67 71 2.6 7.0 0.00 0.00 0.00 58 1013.9
20260507000507 67 58 2.6 7.8 0.00 0.00 0.00 57 1014.0
20260507000009 68 21 2.6 7.8 0.00 0.00 0.00 56 1014.0
20260506235508 68 348 2.6 7.0 0.00 0.00 0.00 57 1014.0
20260506235006 68 58 2.6 7.0 0.00 0.00 0.00 57 1014.0
20260506234507 68 33 4.3 7.0 0.00 0.00 0.00 56 1013.9
20260506234007 69 59 1.7 7.0 0.00 0.00 0.00 57 1013.9
20260506233506 69 48 2.6 7.0 0.00 0.00 0.00 55 1014.0
20260506233008 69 5 1.7 5.2 0.00 0.00 0.00 55 1013.9
20260506232506 69 23 2.6 5.2 0.00 0.00 0.00 54 1013.8
20260506232006 69 355 2.6 6.1 0.00 0.00 0.00 54 1013.9
20260506231517 70 105 2.6 5.2 0.00 0.00 0.00 54 1013.9
20260506231007 70 88 0.0 5.2 0.00 0.00 0.00 52 1014.0
20260506230504 70 91 3.5 5.2 0.00 0.00 0.00 52 1013.9
20260506230005 71 98 1.7 4.3 0.00 0.00 0.00 52 1013.9
20260506225505 71 85 2.6 4.3 0.00 0.00 0.00 51 1014.0
20260506225004 71 141 1.7 3.5 0.00 0.00 0.00 51 1014.0
20260506224503 71 114 0.9 3.5 0.00 0.00 0.00 53 1014.1
20260506224002 70 147 0.0 3.5 0.00 0.00 0.00 52 1014.2
20260506223502 70 115 0.9 3.5 0.00 0.00 0.00 53 1014.2
20260506223004 69 132 0.0 5.2 0.00 0.00 0.00 53 1014.2
20260506222502 69 102 0.9 5.2 0.00 0.00 0.00 54 1014.3
20260506222001 69 92 2.6 6.1 0.00 0.00 0.00 55 1014.3
20260506221502 68 74 1.7 7.0 0.00 0.00 0.00 55 1014.4
20260506221002 68 94 4.3 7.0 0.00 0.00 0.00 56 1014.4
20260506220502 69 76 2.6 7.0 0.00 0.00 0.00 54 1014.3
20260506220002 69 70 0.9 5.2 0.00 0.00 0.00 55 1014.3
20260506215500 69 71 2.6 7.0 0.00 0.00 0.00 54 1014.3
20260506215000 69 84 0.9 9.6 0.00 0.00 0.00 53 1014.3
20260506214601 69 126 2.6 9.6 0.00 0.00 0.00 53 1014.3
20260506214100 70 71 3.5 8.7 0.00 0.00 0.00 55 1014.3
20260506213602 70 103 1.7 7.0 0.00 0.00 0.00 54 1014.3
20260506213139 70 111 1.7 7.8 0.00 0.00 0.00 53 1014.3
20260506212558 70 121 3.5 7.8 0.00 0.00 0.00 52 1014.3
20260506212058 69 128 0.9 6.1 0.00 0.00 0.00 54 1014.4
20260506211611 69 163 2.6 7.0 0.00 0.00 0.00 56 1014.4
20260506211054 68 94 1.7 7.0 0.00 0.00 0.00 56 1014.5
20260506210553 68 101 1.7 6.1 0.00 0.00 0.00 55 1014.6
20260506210056 67 101 3.5 6.1 0.00 0.00 0.00 57 1014.7
20260506205551 67 119 0.9 5.2 0.00 0.00 0.00 57 1014.8
20260506205050 67 114 2.6 5.2 0.00 0.00 0.00 58 1014.8
20260506204556 66 115 0.9 5.2 0.00 0.00 0.00 58 1014.8
20260506204051 66 123 1.7 6.1 0.00 0.00 0.00 59 1014.8
20260506203548 66 117 2.6 6.1 0.00 0.00 0.00 59 1014.7
20260506203049 66 81 2.6 7.0 0.00 0.00 0.00 59 1014.7
20260506202547 66 56 1.7 7.0 0.00 0.00 0.00 60 1014.7
20260506202049 66 80 2.6 5.2 0.00 0.00 0.00 60 1014.7
20260506201557 65 70 2.6 7.0 0.00 0.00 0.00 61 1014.6
20260506201047 65 74 4.3 8.7 0.00 0.00 0.00 60 1014.7
20260506200547 65 107 4.3 8.7 0.00 0.00 0.00 60 1014.6
20260506200045 65 83 3.5 7.8 0.00 0.00 0.00 60 1014.9
20260506195545 66 103 4.3 7.8 0.00 0.00 0.00 60 1014.8
20260506195044 66 118 3.5 7.0 0.00 0.00 0.00 61 1014.9
20260506194556 65 126 1.7 7.0 0.00 0.00 0.00 60 1014.9
20260506194046 65 72 3.5 7.0 0.00 0.00 0.00 61 1015.0
20260506193542 65 109 2.6 8.7 0.00 0.00 0.00 61 1015.0
20260506193041 64 71 2.6 8.7 0.00 0.00 0.00 60 1014.9
20260506192543 64 112 2.6 6.1 0.00 0.00 0.00 61 1015.0
20260506192039 64 180 1.7 6.1 0.00 0.00 0.00 61 1015.1
20260506191545 64 88 3.5 6.1 0.00 0.00 0.00 61 1015.1
20260506191037 64 91 0.0 4.3 0.00 0.00 0.00 62 1015.1
20260506190537 63 76 1.7 4.3 0.00 0.00 0.00 62 1015.1
20260506190036 63 72 0.9 5.2 0.00 0.00 0.00 62 1015.1
20260506185535 63 81 1.7 6.1 0.00 0.00 0.00 62 1015.2
20260506185040 63 80 3.5 6.1 0.00 0.00 0.00 63 1015.1
20260506184533 62 274 0.9 5.2 0.00 0.00 0.00 62 1015.2
20260506184034 62 55 2.6 5.2 0.00 0.00 0.00 63 1015.1
20260506183533 62 98 0.9 3.5 0.00 0.00 0.00 63 1015.1
20260506183041 62 38 1.7 4.3 0.00 0.00 0.00 63 1015.1
20260506182530 62 84 2.6 5.2 0.00 0.00 0.00 64 1015.1
20260506182029 62 128 0.9 5.2 0.00 0.00 0.00 64 1015.2
20260506181528 61 115 3.5 5.2 0.00 0.00 0.00 65 1015.1
20260506181027 61 105 1.7 3.5 0.00 0.00 0.00 65 1014.9
20260506180528 60 118 1.7 3.5 0.00 0.00 0.00 64 1015.0
20260506180027 60 109 0.9 3.5 0.00 0.00 0.00 65 1015.1
20260506175523 60 108 0.9 2.6 0.00 0.00 0.00 65 1015.2
20260506175021 60 109 0.0 2.6 0.00 0.00 0.00 65 1015.2
20260506174521 60 109 0.9 3.5 0.00 0.00 0.00 65 1015.2
20260506174021 60 101 1.7 3.5 0.00 0.00 0.00 65 1015.1
20260506173521 60 157 0.0 3.5 0.00 0.00 0.00 65 1015.1
20260506173023 59 153 1.7 3.5 0.00 0.00 0.00 65 1015.1
20260506172521 59 54 0.0 2.6 0.00 0.00 0.00 65 1015.0
20260506172020 59 34 0.9 2.6 0.00 0.00 0.00 65 1015.0
20260506171526 59 92 0.0 2.6 0.00 0.00 0.00 65 1015.0
20260506171024 59 91 0.0 2.6 0.00 0.00 0.00 65 1015.0
20260506170522 59 107 0.0 2.6 0.00 0.00 0.00 65 1014.9
20260506170019 59 188 0.0 2.6 0.00 0.00 0.00 65 1014.9
20260506165517 59 196 0.9 2.6 0.00 0.00 0.00 65 1015.0
20260506165016 59 198 0.0 2.6 0.00 0.00 0.00 65 1014.9
20260506164516 59 89 0.9 2.6 0.00 0.00 0.00 65 1014.8
20260506164021 59 350 0.0 1.7 0.00 0.00 0.00 65 1014.9
20260506163515 58 313 0.0 3.5 0.00 0.00 0.00 65 1014.9
20260506163018 59 278 0.9 4.3 0.00 0.00 0.00 65 1015.1
20260506162518 59 348 1.7 4.3 0.00 0.00 0.00 65 1015.1
20260506162019 59 24 0.9 2.6 0.00 0.00 0.00 65 1015.0
20260506161515 59 330 0.0 3.5 0.00 0.00 0.00 65 1015.1
20260506161012 59 351 1.7 3.5 0.00 0.00 0.00 65 1015.0
20260506160512 58 272 0.9 2.6 0.00 0.00 0.00 65 1015.0
20260506160011 58 92 0.0 1.7 0.00 0.00 0.00 66 1014.9
20260506155511 58 57 0.0 1.7 0.00 0.00 0.00 66 1014.8
20260506155010 58 57 0.0 1.7 0.00 0.00 0.00 66 1014.6
20260506154510 57 321 0.0 2.6 0.00 0.00 0.00 67 1014.7
20260506154011 57 344 0.0 1.7 0.00 0.00 0.00 67 1014.7
20260506153509 57 138 0.0 2.6 0.00 0.00 0.00 67 1014.5
20260506153010 57 138 1.7 2.6 0.00 0.00 0.00 68 1014.5
20260506152509 56 107 0.0 2.6 0.00 0.00 0.00 68 1014.4
20260506152008 56 82 0.0 1.7 0.00 0.00 0.00 69 1014.5
20260506151507 56 82 0.0 3.5 0.00 0.00 0.00 69 1014.4
20260506151006 56 82 0.9 3.5 0.00 0.00 0.00 68 1014.4
20260506150505 56 16 0.9 2.6 0.00 0.00 0.00 69 1014.7
20260506150005 56 5 0.0 3.5 0.00 0.00 0.00 69 1014.9
20260506145503 56 348 0.9 3.5 0.00 0.00 0.00 69 1015.0
20260506145001 56 311 0.9 4.3 0.00 0.00 0.00 69 1015.0
20260506144501 56 296 2.6 4.3 0.00 0.00 0.00 69 1015.0
20260506144100 56 308 0.9 5.2 0.00 0.00 0.00 69 1015.0
20260506143700 56 309 1.7 5.2 0.00 0.00 0.00 69 1014.9
20260506143104 56 300 2.6 5.2 0.00 0.00 0.00 69 1014.9
20260506142559 56 321 2.6 5.2 0.00 0.00 0.00 70 1014.9
20260506142059 56 300 3.5 5.2 0.00 0.00 0.00 70 1014.7
20260506141555 56 300 1.7 5.2 0.00 0.00 0.00 70 1014.6
20260506141054 56 311 1.7 4.3 0.00 0.00 0.00 70 1014.5
20260506140557 56 319 0.0 2.6 0.00 0.00 0.00 70 1014.4
20260506140053 55 334 0.0 0.9 0.00 0.00 0.00 71 1014.3
20260506135551 55 346 0.0 0.9 0.00 0.00 0.00 70 1014.1
20260506135050 55 312 0.0 0.0 0.00 0.00 0.00 71 1014.0
20260506134550 55 312 0.0 0.0 0.00 0.00 0.00 71 1014.1
20260506134050 55 312 0.0 0.0 0.00 0.00 0.00 71 1014.1
20260506133549 55 312 0.0 0.0 0.00 0.00 0.00 71 1014.1
20260506133051 55 312 0.0 0.0 0.00 0.00 0.00 71 1014.2
20260506132548 55 312 0.0 0.0 0.00 0.00 0.00 71 1014.0
20260506132051 55 312 0.0 0.0 0.00 0.00 0.00 71 1014.1
20260506131546 55 312 0.0 0.0 0.00 0.00 0.00 71 1014.0
20260506131045 55 312 0.0 0.0 0.00 0.00 0.00 71 1014.0
20260506130545 55 312 0.0 0.0 0.00 0.00 0.00 70 1014.0
20260506130046 55 312 0.0 0.0 0.00 0.00 0.00 70 1013.9
20260506125545 55 312 0.0 0.0 0.00 0.00 0.00 70 1013.6
20260506125042 55 312 0.0 0.0 0.00 0.00 0.00 70 1013.6
20260506124541 55 312 0.0 0.0 0.00 0.00 0.00 70 1013.5
20260506124042 56 314 0.0 0.0 0.00 0.00 0.00 70 1013.5
20260506123540 56 314 0.0 1.7 0.00 0.00 0.00 70 1013.5
20260506123040 56 314 0.0 1.7 0.00 0.00 0.00 69 1013.5
20260506122541 56 314 0.0 0.9 0.00 0.00 0.00 69 1013.4
20260506122041 56 314 0.0 0.9 0.00 0.00 0.00 69 1013.4
20260506121538 56 314 0.0 1.7 0.00 0.00 0.00 69 1013.4
20260506121041 56 314 0.0 0.9 0.00 0.00 0.00 69 1013.4
20260506120538 56 311 0.0 1.7 0.00 0.00 0.00 69 1013.4
20260506120042 56 311 0.0 1.7 0.00 0.00 0.00 70 1013.5
20260506115537 56 311 0.0 0.9 0.00 0.00 0.00 70 1013.4
20260506115036 56 311 0.0 2.6 0.00 0.00 0.00 70 1013.5
20260506114535 56 311 0.9 3.5 0.00 0.00 0.00 70 1013.4
20260506114035 56 312 1.7 4.3 0.00 0.00 0.00 70 1013.3
20260506113535 56 337 1.7 4.3 0.00 0.00 0.00 70 1013.3
20260506113035 56 324 0.0 1.7 0.00 0.00 0.00 70 1013.4
20260506112534 56 335 0.0 1.7 0.00 0.00 0.00 70 1013.2
20260506112033 56 355 0.0 0.0 0.00 0.00 0.00 70 1013.1
20260506111533 56 318 0.0 0.0 0.00 0.00 0.00 70 1013.2
20260506111033 57 318 0.0 0.0 0.00 0.00 0.00 70 1013.2
20260506110535 57 318 0.0 0.0 0.00 0.00 0.00 70 1013.1
20260506110033 57 318 0.0 0.0 0.00 0.00 0.00 71 1013.1
20260506105532 57 318 0.0 0.0 0.00 0.00 0.00 71 1013.0
20260506105032 57 318 0.0 0.0 0.00 0.00 0.00 71 1012.9
20260506104531 57 318 0.0 0.0 0.00 0.00 0.00 71 1012.8
20260506104029 57 298 0.0 0.0 0.00 0.00 0.00 71 1012.7
20260506103532 57 294 0.0 0.0 0.00 0.00 0.00 71 1012.7
20260506103030 57 294 0.0 0.0 0.00 0.00 0.00 71 1012.6
20260506102530 57 294 0.0 0.0 0.00 0.00 0.00 70 1012.5
20260506102029 57 294 0.0 0.0 0.00 0.00 0.00 70 1012.5
20260506101527 57 294 0.0 0.0 0.00 0.00 0.00 70 1012.4
20260506101029 57 294 0.0 0.0 0.00 0.00 0.00 70 1012.4
20260506100529 57 294 0.0 0.0 0.00 0.00 0.00 70 1012.3
20260506100027 57 294 0.0 0.0 0.00 0.00 0.00 70 1012.1
20260506095525 57 294 0.0 0.0 0.00 0.00 0.00 70 1012.2
20260506095024 57 294 0.0 0.0 0.00 0.00 0.00 70 1012.1
20260506094524 57 294 0.0 0.0 0.00 0.00 0.00 70 1012.2
20260506094023 57 294 0.0 0.0 0.00 0.00 0.00 70 1012.1
20260506093523 57 294 0.0 0.0 0.00 0.00 0.00 70 1012.0
20260506093023 57 294 0.0 0.0 0.00 0.00 0.00 69 1012.1
20260506092522 57 294 0.0 0.0 0.00 0.00 0.00 69 1012.0
20260506092022 57 294 0.0 0.0 0.00 0.00 0.00 69 1012.0
20260506091521 57 294 0.0 0.0 0.00 0.00 0.00 69 1012.0
20260506091021 57 294 0.0 0.0 0.00 0.00 0.00 69 1012.0
20260506090520 57 285 0.0 0.0 0.00 0.00 0.00 69 1012.0
20260506090120 57 304 0.0 0.0 0.00 0.00 0.00 69 1011.9
20260506085521 57 290 0.0 0.0 0.00 0.00 0.00 70 1012.0
20260506085019 57 294 0.0 0.0 0.00 0.00 0.00 70 1011.9
20260506084523 57 355 0.0 0.0 0.00 0.00 0.00 70 1012.0
20260506084019 58 355 0.0 0.0 0.00 0.00 0.00 70 1012.0
20260506083519 58 355 0.0 0.0 0.00 0.00 0.00 70 1012.0
20260506083019 58 355 0.0 0.0 0.00 0.00 0.00 70 1011.9
20260506082517 58 355 0.0 0.0 0.00 0.00 0.00 71 1011.9
20260506082017 58 355 0.0 1.7 0.00 0.00 0.00 71 1011.9
20260506081517 58 355 0.0 2.6 0.00 0.00 0.00 71 1011.9
20260506081015 58 355 0.9 2.6 0.00 0.00 0.00 72 1011.8
20260506080515 58 97 0.0 0.0 0.00 0.00 0.00 72 1011.8
20260506073511 58 98 0.0 0.0 0.00 0.00 0.00 72 1011.4
20260506073013 58 98 0.0 0.0 0.00 0.00 0.00 72 1011.4
20260506072513 58 98 0.0 0.0 0.00 0.00 0.00 72 1011.4
20260506072008 58 98 0.0 0.0 0.00 0.00 0.00 72 1011.4
20260506071508 58 98 0.0 0.0 0.00 0.00 0.00 72 1011.3
20260506071008 58 98 0.0 0.0 0.00 0.00 0.00 72 1011.3
20260506070510 58 98 0.0 0.0 0.00 0.00 0.00 72 1011.2
20260506062506 58 98 0.0 0.0 0.00 0.00 0.00 72 1011.0
20260506062006 58 98 0.0 0.0 0.00 0.00 0.00 72 1011.1
20260506061506 58 98 0.0 0.0 0.00 0.00 0.00 72 1011.0
20260506061006 58 98 0.0 0.0 0.00 0.00 0.00 72 1011.0
20260506060505 58 98 0.0 0.0 0.00 0.00 0.00 72 1011.0
20260506051003 57 99 0.0 0.0 0.00 0.00 0.00 70 1010.8
20260506050506 57 99 0.0 0.0 0.00 0.00 0.00 70 1010.7
20260506045005 57 99 0.0 0.0 0.00 0.00 0.00 68 1010.7
20260506044506 57 99 0.0 0.0 0.00 0.00 0.00 68 1010.6
20260506044002 57 98 0.0 0.0 0.00 0.00 0.00 67 1010.7
20260506043502 57 99 0.0 0.0 0.00 0.00 0.00 66 1010.6
20260506043006 57 98 0.0 0.0 0.00 0.00 0.00 65 1010.6
20260506042505 57 98 0.0 0.0 0.00 0.00 0.00 65 1010.5
20260506042003 58 98 0.0 0.0 0.00 0.00 0.00 64 1010.5
20260506041501 58 98 0.0 0.0 0.00 0.00 0.00 64 1010.4
20260506041001 59 98 0.0 0.0 0.00 0.00 0.00 63 1010.3
20260506040501 60 98 0.0 0.0 0.00 0.00 0.00 63 1010.2
20260506040001 60 98 0.0 0.0 0.00 0.00 0.00 62 1010.2
20260506035501 61 99 0.0 0.0 0.00 0.00 0.00 62 1010.1
20260506035101 61 99 0.0 0.0 0.00 0.00 0.00 61 1010.0
20260506035001 61 98 0.0 0.0 0.00 0.00 0.00 61 1010.1
20260506034606 62 99 0.0 0.0 0.00 0.00 0.00 61 1010.0
20260506034100 62 99 0.0 0.0 0.00 0.00 0.00 60 1009.9
20260506033600 63 99 0.0 0.0 0.00 0.00 0.00 60 1009.9
20260506033100 63 98 0.0 0.9 0.00 0.00 0.00 60 1009.8
20260506032602 64 98 0.0 0.9 0.00 0.00 0.00 60 1009.8
20260506032100 64 98 0.0 0.9 0.00 0.00 0.00 60 1009.7
20260506031600 64 98 0.0 0.0 0.00 0.00 0.00 59 1009.8
20260506031059 65 98 0.0 0.0 0.00 0.00 0.00 59 1009.7
20260506030559 65 98 0.0 0.9 0.00 0.00 0.00 58 1009.7
20260506030059 65 98 0.0 1.7 0.00 0.00 0.00 58 1009.7
20260506025559 65 98 0.0 0.0 0.00 0.00 0.00 57 1009.6
20260506025059 65 98 0.0 1.7 0.00 0.00 0.00 57 1009.6
20260506024601 65 98 0.0 2.6 0.00 0.00 0.00 57 1009.5
20260506024059 65 98 0.9 3.5 0.00 0.00 0.00 56 1009.5
20260506023559 65 93 1.7 5.2 0.00 0.00 0.00 56 1009.4
20260506023102 65 119 1.7 6.1 0.00 0.00 0.00 56 1009.3
20260506022558 66 81 2.6 6.1 0.00 0.00 0.00 56 1009.3
20260506022100 66 123 1.7 3.5 0.00 0.00 0.00 55 1009.3
20260506021606 66 154 0.9 5.2 0.00 0.00 0.00 55 1009.3
20260506021057 66 99 2.6 5.2 0.00 0.00 0.00 55 1009.3
20260506020559 66 103 0.9 4.3 0.00 0.00 0.00 55 1009.3
20260506020057 66 104 1.7 3.5 0.00 0.00 0.00 56 1009.3
20260506015600 66 165 0.0 3.5 0.00 0.00 0.00 56 1009.4